| time (UTC) | temp F | wind direction | speed MPH | gust MPH | rain 1hr in | rain 24hr in | rain mn in | humidity % | barometer mb |
| 20260901110747 | 63 | 250 | 0.0 | 0.0 | 0.00 | 0.23 | 0.00 | 94 | 1012.6 |
| 20260901110247 | 63 | 250 | 0.0 | 0.0 | 0.00 | 0.23 | 0.00 | 94 | 1012.5 |
| 20260901105747 | 64 | 250 | 0.0 | 0.0 | 0.00 | 0.23 | 0.00 | 94 | 1012.6 |
| 20260901105247 | 64 | 250 | 0.0 | 0.0 | 0.00 | 0.23 | 0.00 | 94 | 1012.6 |
| 20260901103746 | 64 | 250 | 0.0 | 0.0 | 0.00 | 0.23 | 0.00 | 94 | 1012.4 |
| 20260901102746 | 64 | 250 | 0.0 | 0.0 | 0.00 | 0.23 | 0.00 | 94 | 1012.4 |
| 20260901102246 | 64 | 250 | 0.0 | 0.0 | 0.00 | 0.23 | 0.00 | 94 | 1012.4 |
| 20260901101247 | 64 | 250 | 0.0 | 0.0 | 0.00 | 0.23 | 0.00 | 94 | 1012.3 |
| 20260901100747 | 65 | 250 | 0.0 | 0.0 | 0.00 | 0.23 | 0.00 | 94 | 1012.5 |
| 20260901095252 | 65 | 250 | 0.0 | 0.0 | 0.00 | 0.23 | 0.00 | 94 | 1012.4 |
| 20260901094253 | 65 | 250 | 0.0 | 0.0 | 0.00 | 0.23 | 0.00 | 94 | 1012.4 |
| 20260901093753 | 65 | 250 | 0.0 | 0.0 | 0.00 | 0.24 | 0.00 | 94 | 1012.5 |
| 20260901093252 | 65 | 250 | 0.0 | 0.0 | 0.00 | 0.24 | 0.00 | 94 | 1012.6 |
| 20260901092753 | 65 | 250 | 0.0 | 0.0 | 0.00 | 0.25 | 0.00 | 94 | 1012.6 |
| 20260901092253 | 65 | 250 | 0.0 | 0.0 | 0.00 | 0.25 | 0.00 | 94 | 1012.7 |
| 20260901091753 | 65 | 250 | 0.0 | 0.0 | 0.00 | 0.26 | 0.00 | 94 | 1012.7 |
| 20260901091253 | 65 | 250 | 0.0 | 0.0 | 0.00 | 0.27 | 0.00 | 94 | 1012.6 |
| 20260901090753 | 65 | 250 | 0.0 | 0.0 | 0.00 | 0.27 | 0.00 | 94 | 1012.5 |
| 20260901090253 | 65 | 250 | 0.0 | 0.0 | 0.00 | 0.28 | 0.00 | 94 | 1012.5 |
| 20260901085253 | 65 | 250 | 0.0 | 0.0 | 0.00 | 0.28 | 0.00 | 94 | 1012.3 |
| 20260901084753 | 65 | 250 | 0.0 | 0.0 | 0.00 | 0.29 | 0.00 | 94 | 1012.3 |
| 20260901084253 | 65 | 250 | 0.0 | 0.0 | 0.00 | 0.29 | 0.00 | 94 | 1012.2 |
| 20260901083753 | 65 | 250 | 0.0 | 0.0 | 0.00 | 0.29 | 0.00 | 94 | 1012.3 |
| 20260901083252 | 65 | 250 | 0.0 | 0.0 | 0.00 | 0.30 | 0.00 | 94 | 1012.2 |
| 20260901082753 | 65 | 250 | 0.0 | 0.0 | 0.00 | 0.31 | 0.00 | 94 | 1012.2 |
| 20260901082252 | 66 | 250 | 0.0 | 0.0 | 0.00 | 0.31 | 0.00 | 94 | 1012.2 |
| 20260901081252 | 66 | 250 | 0.0 | 0.0 | 0.00 | 0.31 | 0.00 | 94 | 1012.2 |
| 20260901080753 | 66 | 250 | 0.0 | 0.0 | 0.00 | 0.32 | 0.00 | 94 | 1012.1 |
| 20260901075753 | 66 | 250 | 0.0 | 0.0 | 0.00 | 0.32 | 0.00 | 94 | 1012.1 |
| 20260901075253 | 66 | 250 | 0.0 | 0.0 | 0.00 | 0.32 | 0.00 | 94 | 1012.2 |
| 20260901074252 | 66 | 250 | 0.0 | 0.0 | 0.00 | 0.32 | 0.00 | 94 | 1012.2 |
| 20260901073752 | 66 | 250 | 0.0 | 0.0 | 0.00 | 0.32 | 0.00 | 94 | 1012.1 |
| 20260901072753 | 66 | 250 | 0.0 | 0.0 | 0.00 | 0.32 | 0.00 | 94 | 1012.2 |
| 20260901072252 | 67 | 250 | 0.0 | 0.0 | 0.00 | 0.32 | 0.00 | 94 | 1012.2 |
| 20260901071752 | 67 | 250 | 0.0 | 0.0 | 0.00 | 0.32 | 0.00 | 94 | 1012.2 |
| 20260901070252 | 67 | 250 | 0.0 | 0.0 | 0.00 | 0.32 | 0.00 | 94 | 1012.2 |
| 20260901065753 | 67 | 250 | 0.0 | 0.0 | 0.00 | 0.32 | 0.00 | 94 | 1012.2 |
| 20260901065253 | 67 | 250 | 0.0 | 0.0 | 0.00 | 0.32 | 0.00 | 94 | 1012.1 |
| 20260901064753 | 67 | 250 | 0.0 | 0.0 | 0.00 | 0.32 | 0.00 | 94 | 1012.1 |
| 20260901064252 | 67 | 250 | 0.0 | 0.0 | 0.00 | 0.32 | 0.00 | 94 | 1012.0 |
| 20260901063753 | 68 | 250 | 0.0 | 0.0 | 0.00 | 0.32 | 0.00 | 94 | 1012.1 |
| 20260901063253 | 68 | 250 | 0.0 | 0.0 | 0.00 | 0.32 | 0.00 | 94 | 1012.2 |
| 20260901062753 | 68 | 250 | 0.0 | 0.0 | 0.00 | 0.32 | 0.00 | 94 | 1012.1 |
| 20260901062252 | 68 | 250 | 0.0 | 0.0 | 0.00 | 0.32 | 0.00 | 94 | 1012.2 |
| 20260901061752 | 68 | 250 | 0.0 | 0.0 | 0.00 | 0.32 | 0.00 | 94 | 1012.2 |
| 20260901061252 | 68 | 250 | 0.0 | 0.0 | 0.00 | 0.32 | 0.00 | 94 | 1012.3 |
| 20260901055749 | 69 | 250 | 0.0 | 0.0 | 0.00 | 0.32 | 0.00 | 94 | 1012.3 |
| 20260901055250 | 69 | 250 | 0.0 | 0.0 | 0.00 | 0.32 | 0.00 | 93 | 1012.3 |
| 20260901054749 | 69 | 250 | 0.0 | 0.0 | 0.00 | 0.32 | 0.00 | 93 | 1012.2 |
| 20260901054249 | 69 | 250 | 0.0 | 0.0 | 0.00 | 0.32 | 0.00 | 93 | 1012.2 |
| 20260901053750 | 69 | 250 | 0.0 | 0.0 | 0.00 | 0.32 | 0.00 | 93 | 1012.2 |
| 20260901053250 | 70 | 250 | 0.0 | 0.0 | 0.00 | 0.32 | 0.00 | 93 | 1012.3 |
| 20260901052750 | 70 | 250 | 0.0 | 0.0 | 0.00 | 0.32 | 0.00 | 93 | 1012.3 |
| 20260901052250 | 70 | 250 | 0.0 | 0.0 | 0.00 | 0.32 | 0.00 | 93 | 1012.3 |
| 20260901051750 | 70 | 250 | 0.0 | 0.0 | 0.00 | 0.32 | 0.00 | 93 | 1012.3 |
| 20260901051250 | 70 | 250 | 0.0 | 0.0 | 0.00 | 0.32 | 0.00 | 92 | 1012.2 |
| 20260901050750 | 71 | 250 | 0.0 | 0.0 | 0.00 | 0.32 | 0.00 | 92 | 1012.2 |
| 20260901050250 | 71 | 250 | 0.0 | 0.0 | 0.00 | 0.32 | 0.00 | 92 | 1012.1 |
| 20260901045750 | 71 | 250 | 0.0 | 0.0 | 0.00 | 0.32 | 0.00 | 92 | 1012.0 |
| 20260901045250 | 71 | 250 | 0.0 | 0.0 | 0.00 | 0.32 | 0.00 | 92 | 1012.0 |
| 20260901044750 | 71 | 251 | 0.0 | 0.0 | 0.00 | 0.32 | 0.00 | 92 | 1012.0 |
| 20260901044250 | 71 | 265 | 0.0 | 0.0 | 0.00 | 0.32 | 0.00 | 92 | 1012.1 |
| 20260901043750 | 71 | 271 | 0.0 | 0.0 | 0.00 | 0.32 | 0.00 | 92 | 1012.1 |
| 20260901043250 | 72 | 225 | 0.0 | 0.0 | 0.00 | 0.32 | 0.00 | 92 | 1012.1 |
| 20260901042750 | 72 | 220 | 0.0 | 0.0 | 0.00 | 0.32 | 0.00 | 91 | 1012.0 |
| 20260901041750 | 72 | 269 | 0.0 | 0.0 | 0.00 | 0.32 | 0.00 | 91 | 1012.2 |
| 20260901041250 | 72 | 270 | 0.0 | 0.0 | 0.00 | 0.32 | 0.00 | 91 | 1012.3 |
| 20260901040750 | 72 | 238 | 0.0 | 0.0 | 0.00 | 0.32 | 0.00 | 91 | 1012.3 |
| 20260901040250 | 72 | 202 | 0.0 | 0.0 | 0.00 | 0.32 | 0.00 | 90 | 1012.2 |
| 20260901035250 | 72 | 232 | 0.0 | 0.0 | 0.00 | 0.32 | 0.32 | 90 | 1012.0 |
| 20260901034750 | 72 | 233 | 0.0 | 0.0 | 0.00 | 0.32 | 0.32 | 90 | 1012.1 |
| 20260901034250 | 72 | 234 | 0.0 | 0.0 | 0.00 | 0.32 | 0.32 | 91 | 1012.0 |
| 20260901033250 | 72 | 204 | 0.0 | 0.0 | 0.00 | 0.32 | 0.32 | 91 | 1012.0 |
| 20260901032750 | 72 | 255 | 0.0 | 0.0 | 0.00 | 0.32 | 0.32 | 91 | 1012.1 |
| 20260901032250 | 72 | 223 | 0.0 | 0.0 | 0.00 | 0.32 | 0.32 | 91 | 1012.2 |
| 20260901031750 | 72 | 231 | 0.0 | 0.0 | 0.00 | 0.32 | 0.32 | 91 | 1012.1 |
| 20260901031250 | 72 | 232 | 0.0 | 0.0 | 0.00 | 0.32 | 0.32 | 91 | 1012.2 |
| 20260901030750 | 72 | 223 | 0.0 | 0.0 | 0.00 | 0.32 | 0.32 | 91 | 1012.2 |
| 20260901030250 | 72 | 221 | 0.0 | 0.0 | 0.00 | 0.32 | 0.32 | 91 | 1012.1 |
| 20260901025750 | 72 | 200 | 0.0 | 0.0 | 0.00 | 0.32 | 0.32 | 91 | 1012.0 |
| 20260901025250 | 72 | 205 | 0.0 | 0.0 | 0.00 | 0.32 | 0.32 | 91 | 1011.9 |
| 20260901023750 | 72 | 224 | 0.0 | 0.0 | 0.00 | 0.32 | 0.32 | 91 | 1011.9 |
| 20260901022750 | 72 | 273 | 0.0 | 0.0 | 0.00 | 0.32 | 0.32 | 91 | 1012.0 |
| 20260901022250 | 72 | 243 | 0.0 | 0.0 | 0.00 | 0.32 | 0.32 | 91 | 1012.0 |
| 20260901021750 | 72 | 242 | 0.0 | 0.0 | 0.00 | 0.32 | 0.32 | 91 | 1011.8 |
| 20260901021250 | 72 | 209 | 0.0 | 0.0 | 0.00 | 0.32 | 0.32 | 91 | 1012.0 |
| 20260901015745 | 72 | 248 | 0.0 | 0.0 | 0.00 | 0.32 | 0.32 | 91 | 1012.1 |
| 20260901015245 | 72 | 247 | 0.0 | 0.0 | 0.00 | 0.32 | 0.32 | 91 | 1012.1 |
| 20260901014745 | 72 | 267 | 0.0 | 0.0 | 0.00 | 0.32 | 0.32 | 91 | 1012.0 |
| 20260901014245 | 72 | 242 | 0.0 | 0.0 | 0.00 | 0.32 | 0.32 | 91 | 1011.9 |
| 20260901013745 | 72 | 242 | 0.0 | 0.0 | 0.00 | 0.32 | 0.32 | 91 | 1011.9 |
| 20260901013245 | 72 | 242 | 0.0 | 0.0 | 0.00 | 0.32 | 0.32 | 90 | 1011.9 |
| 20260901012745 | 72 | 234 | 0.0 | 0.0 | 0.00 | 0.32 | 0.32 | 90 | 1011.7 |
| 20260901012245 | 72 | 246 | 0.0 | 0.0 | 0.00 | 0.32 | 0.32 | 90 | 1011.7 |
| 20260901011745 | 72 | 205 | 0.0 | 0.0 | 0.00 | 0.32 | 0.32 | 90 | 1011.7 |
| 20260901011245 | 72 | 209 | 0.0 | 0.0 | 0.00 | 0.32 | 0.32 | 90 | 1011.7 |
| 20260901010245 | 73 | 228 | 0.0 | 0.0 | 0.00 | 0.32 | 0.32 | 90 | 1011.6 |
| 20260901005745 | 73 | 228 | 0.0 | 0.0 | 0.00 | 0.32 | 0.32 | 90 | 1011.5 |
| 20260901004745 | 73 | 225 | 0.0 | 0.0 | 0.00 | 0.32 | 0.32 | 89 | 1011.4 |
| 20260901004245 | 73 | 225 | 0.0 | 0.0 | 0.00 | 0.32 | 0.32 | 88 | 1011.3 |
| 20260901003745 | 73 | 225 | 0.0 | 0.0 | 0.00 | 0.32 | 0.32 | 88 | 1011.2 |
| 20260901003245 | 73 | 225 | 0.0 | 0.0 | 0.00 | 0.32 | 0.32 | 88 | 1011.3 |
| 20260901002745 | 73 | 198 | 0.0 | 0.0 | 0.00 | 0.32 | 0.32 | 88 | 1011.2 |
| 20260901002245 | 74 | 209 | 0.0 | 0.0 | 0.00 | 0.32 | 0.32 | 88 | 1011.2 |
| 20260901001745 | 74 | 209 | 0.0 | 0.0 | 0.00 | 0.32 | 0.32 | 88 | 1011.1 |
| 20260901001245 | 74 | 209 | 0.0 | 0.0 | 0.00 | 0.32 | 0.32 | 87 | 1011.1 |
| 20260901000745 | 74 | 209 | 0.0 | 0.0 | 0.00 | 0.32 | 0.32 | 87 | 1011.2 |
| 20260901000245 | 74 | 209 | 0.0 | 0.0 | 0.00 | 0.32 | 0.32 | 87 | 1011.2 |
| 20260831235745 | 74 | 209 | 0.0 | 0.0 | 0.00 | 0.32 | 0.32 | 86 | 1011.2 |
| 20260831235245 | 74 | 237 | 0.0 | 0.0 | 0.00 | 0.32 | 0.32 | 86 | 1011.2 |
| 20260831234745 | 75 | 237 | 0.0 | 0.0 | 0.00 | 0.32 | 0.32 | 86 | 1011.3 |
| 20260831234245 | 75 | 234 | 0.0 | 0.0 | 0.00 | 0.32 | 0.32 | 86 | 1011.2 |
| 20260831233745 | 75 | 231 | 0.0 | 0.0 | 0.00 | 0.32 | 0.32 | 85 | 1011.2 |
| 20260831233245 | 75 | 232 | 0.0 | 0.0 | 0.00 | 0.32 | 0.32 | 85 | 1011.3 |
| 20260831232745 | 76 | 250 | 0.0 | 0.0 | 0.00 | 0.32 | 0.32 | 84 | 1011.4 |
| 20260831232245 | 76 | 308 | 0.0 | 0.0 | 0.00 | 0.32 | 0.32 | 84 | 1011.4 |
| 20260831231745 | 77 | 273 | 0.0 | 0.0 | 0.00 | 0.32 | 0.32 | 83 | 1011.4 |
| 20260831231245 | 77 | 239 | 0.0 | 0.0 | 0.00 | 0.32 | 0.32 | 82 | 1011.2 |
| 20260831230745 | 77 | 249 | 0.0 | 0.0 | 0.00 | 0.32 | 0.32 | 81 | 1011.1 |
| 20260831230245 | 77 | 263 | 0.0 | 0.0 | 0.00 | 0.32 | 0.32 | 81 | 1011.0 |
| 20260831225745 | 78 | 269 | 0.0 | 0.0 | 0.00 | 0.32 | 0.32 | 81 | 1010.9 |
| 20260831224745 | 78 | 290 | 0.0 | 0.0 | 0.00 | 0.32 | 0.32 | 80 | 1010.7 |
| 20260831224245 | 78 | 294 | 0.0 | 0.0 | 0.00 | 0.32 | 0.32 | 80 | 1010.8 |
| 20260831223745 | 78 | 270 | 0.0 | 0.0 | 0.00 | 0.32 | 0.32 | 80 | 1010.8 |
| 20260831223245 | 78 | 233 | 0.0 | 0.0 | 0.00 | 0.32 | 0.32 | 79 | 1010.9 |
| 20260831222745 | 79 | 311 | 0.0 | 0.0 | 0.00 | 0.32 | 0.32 | 80 | 1010.8 |
| 20260831222245 | 79 | 281 | 0.0 | 0.0 | 0.00 | 0.32 | 0.32 | 80 | 1010.8 |
| 20260831221245 | 79 | 301 | 0.0 | 0.0 | 0.00 | 0.32 | 0.32 | 78 | 1010.8 |
| 20260831220745 | 79 | 301 | 0.0 | 0.0 | 0.00 | 0.32 | 0.32 | 80 | 1010.8 |
| 20260831215759 | 79 | 300 | 0.0 | 0.0 | 0.00 | 0.32 | 0.32 | 78 | 1010.7 |
| 20260831215259 | 79 | 310 | 0.0 | 0.0 | 0.00 | 0.32 | 0.32 | 79 | 1010.7 |
| 20260831214759 | 79 | 268 | 0.0 | 0.0 | 0.00 | 0.32 | 0.32 | 77 | 1010.7 |
| 20260831213759 | 79 | 240 | 0.0 | 0.0 | 0.00 | 0.33 | 0.32 | 78 | 1010.7 |
| 20260831213259 | 79 | 243 | 0.0 | 0.0 | 0.00 | 0.33 | 0.32 | 77 | 1010.7 |
| 20260831212759 | 79 | 203 | 0.0 | 0.0 | 0.00 | 0.33 | 0.32 | 78 | 1010.6 |
| 20260831212259 | 79 | 238 | 0.0 | 0.0 | 0.00 | 0.33 | 0.32 | 79 | 1010.7 |
| 20260831211759 | 79 | 214 | 0.0 | 0.0 | 0.00 | 0.33 | 0.32 | 78 | 1010.8 |
| 20260831211259 | 79 | 220 | 0.0 | 0.0 | 0.00 | 0.33 | 0.32 | 79 | 1010.8 |
| 20260831210759 | 79 | 294 | 0.0 | 0.0 | 0.00 | 0.34 | 0.32 | 78 | 1010.8 |
| 20260831205259 | 81 | 228 | 0.0 | 0.0 | 0.00 | 0.34 | 0.32 | 78 | 1010.7 |
| 20260831204759 | 82 | 246 | 0.0 | 0.0 | 0.00 | 0.34 | 0.32 | 75 | 1010.8 |
| 20260831204259 | 83 | 248 | 0.0 | 0.0 | 0.00 | 0.34 | 0.32 | 77 | 1010.7 |
| 20260831203759 | 83 | 215 | 0.0 | 0.0 | 0.00 | 0.34 | 0.32 | 74 | 1010.6 |
| 20260831203259 | 83 | 209 | 0.0 | 0.0 | 0.00 | 0.34 | 0.32 | 73 | 1010.7 |
| 20260831202259 | 83 | 200 | 0.0 | 0.0 | 0.00 | 0.34 | 0.32 | 73 | 1010.7 |
| 20260831201759 | 84 | 221 | 0.0 | 0.0 | 0.00 | 0.34 | 0.32 | 71 | 1010.8 |
| 20260831201259 | 84 | 207 | 0.0 | 0.0 | 0.00 | 0.34 | 0.32 | 71 | 1010.9 |
| 20260831200759 | 84 | 222 | 0.0 | 0.0 | 0.00 | 0.34 | 0.32 | 72 | 1011.0 |
| 20260831200259 | 85 | 225 | 0.0 | 0.0 | 0.00 | 0.34 | 0.32 | 72 | 1011.1 |
| 20260831195759 | 84 | 182 | 0.0 | 0.0 | 0.00 | 0.34 | 0.32 | 70 | 1011.1 |
| 20260831195259 | 84 | 257 | 0.0 | 0.0 | 0.00 | 0.34 | 0.32 | 72 | 1011.1 |
| 20260831194759 | 83 | 215 | 0.0 | 0.0 | 0.00 | 0.34 | 0.32 | 72 | 1011.1 |
| 20260831194259 | 83 | 229 | 0.0 | 0.0 | 0.00 | 0.34 | 0.32 | 74 | 1011.3 |
| 20260831193259 | 83 | 193 | 0.0 | 0.0 | 0.00 | 0.34 | 0.32 | 72 | 1011.3 |
| 20260831192759 | 82 | 198 | 0.0 | 0.0 | 0.00 | 0.34 | 0.32 | 74 | 1011.4 |
| 20260831192259 | 82 | 225 | 0.0 | 0.0 | 0.00 | 0.34 | 0.32 | 75 | 1011.4 |
| 20260831191759 | 82 | 158 | 0.0 | 0.0 | 0.00 | 0.34 | 0.32 | 74 | 1011.5 |
| 20260831191259 | 82 | 197 | 0.0 | 0.0 | 0.00 | 0.34 | 0.32 | 74 | 1011.6 |
| 20260831190759 | 81 | 240 | 0.0 | 0.0 | 0.00 | 0.34 | 0.32 | 74 | 1011.6 |
| 20260831185759 | 82 | 321 | 0.0 | 0.0 | 0.00 | 0.34 | 0.32 | 75 | 1011.7 |
| 20260831185259 | 82 | 153 | 0.0 | 0.0 | 0.00 | 0.34 | 0.32 | 73 | 1011.7 |
| 20260831184759 | 82 | 295 | 0.0 | 0.0 | 0.00 | 0.34 | 0.32 | 73 | 1011.8 |
| 20260831184259 | 82 | 202 | 0.0 | 0.0 | 0.00 | 0.34 | 0.32 | 74 | 1011.7 |
| 20260831183259 | 82 | 273 | 0.0 | 0.0 | 0.00 | 0.34 | 0.32 | 74 | 1011.8 |
| 20260831182259 | 82 | 276 | 0.0 | 0.0 | 0.00 | 0.34 | 0.32 | 74 | 1011.8 |
| 20260831181759 | 82 | 319 | 0.0 | 0.0 | 0.00 | 0.34 | 0.32 | 74 | 1011.8 |
| 20260831181259 | 82 | 222 | 0.0 | 0.0 | 0.00 | 0.34 | 0.32 | 74 | 1011.9 |
| 20260831175755 | 81 | 180 | 0.0 | 0.0 | 0.00 | 0.34 | 0.32 | 78 | 1011.8 |
| 20260831175255 | 81 | 158 | 0.0 | 0.0 | 0.00 | 0.34 | 0.32 | 78 | 1011.8 |
| 20260831174755 | 81 | 219 | 0.0 | 0.0 | 0.00 | 0.34 | 0.32 | 77 | 1011.7 |
| 20260831174255 | 80 | 188 | 0.0 | 0.0 | 0.00 | 0.34 | 0.32 | 77 | 1011.9 |
| 20260831173755 | 80 | 211 | 0.0 | 0.0 | 0.00 | 0.34 | 0.32 | 78 | 1012.1 |
| 20260831172744 | 80 | 213 | 0.0 | 0.0 | 0.00 | 0.34 | 0.32 | 77 | 1012.2 |
| 20260831171744 | 79 | 211 | 0.0 | 0.0 | 0.00 | 0.34 | 0.32 | 82 | 1011.8 |
| 20260831171244 | 79 | 105 | 0.0 | 0.0 | 0.00 | 0.34 | 0.32 | 82 | 1011.9 |
| 20260831170744 | 79 | 172 | 0.0 | 0.0 | 0.00 | 0.34 | 0.32 | 81 | 1012.0 |
| 20260831165744 | 79 | 178 | 0.0 | 0.0 | 0.00 | 0.34 | 0.32 | 81 | 1012.0 |
| 20260831165244 | 79 | 160 | 0.0 | 0.0 | 0.00 | 0.34 | 0.32 | 82 | 1011.9 |
| 20260831164244 | 78 | 172 | 0.0 | 0.0 | 0.00 | 0.34 | 0.32 | 85 | 1012.0 |
| 20260831163744 | 78 | 312 | 0.0 | 0.0 | 0.00 | 0.34 | 0.32 | 86 | 1012.2 |
| 20260831162744 | 77 | 161 | 0.0 | 0.0 | 0.00 | 0.34 | 0.32 | 87 | 1012.1 |
| 20260831162244 | 76 | 242 | 0.0 | 0.0 | 0.01 | 0.34 | 0.32 | 88 | 1012.1 |
| 20260831161744 | 76 | 207 | 0.0 | 0.0 | 0.01 | 0.34 | 0.32 | 89 | 1012.1 |
| 20260831160744 | 75 | 223 | 0.0 | 0.0 | 0.01 | 0.34 | 0.32 | 92 | 1012.2 |
| 20260831160244 | 74 | 61 | 0.0 | 0.0 | 0.01 | 0.34 | 0.32 | 92 | 1012.2 |
| 20260831155744 | 74 | 169 | 0.0 | 0.0 | 0.01 | 0.34 | 0.32 | 92 | 1012.2 |
| 20260831155244 | 73 | 267 | 0.0 | 0.0 | 0.01 | 0.34 | 0.32 | 93 | 1012.2 |
| 20260831154244 | 73 | 212 | 0.0 | 0.0 | 0.02 | 0.34 | 0.32 | 93 | 1012.6 |
| 20260831153744 | 73 | 186 | 0.0 | 0.0 | 0.02 | 0.34 | 0.32 | 92 | 1012.6 |
| 20260831153244 | 72 | 196 | 0.0 | 0.0 | 0.02 | 0.34 | 0.32 | 92 | 1012.8 |
| 20260831152244 | 72 | 341 | 0.0 | 0.0 | 0.01 | 0.33 | 0.31 | 92 | 1012.8 |
| 20260831150744 | 70 | 192 | 0.0 | 0.0 | 0.01 | 0.33 | 0.31 | 92 | 1012.5 |
| 20260831150244 | 70 | 281 | 0.0 | 0.0 | 0.01 | 0.33 | 0.31 | 93 | 1012.6 |
| 20260831145744 | 69 | 180 | 0.0 | 0.0 | 0.02 | 0.33 | 0.31 | 93 | 1012.4 |
| 20260831145244 | 69 | 186 | 0.0 | 0.0 | 0.02 | 0.33 | 0.31 | 93 | 1012.6 |
| 20260831144744 | 69 | 240 | 0.0 | 0.0 | 0.02 | 0.33 | 0.31 | 93 | 1012.5 |
| 20260831143744 | 69 | 217 | 0.0 | 0.0 | 0.02 | 0.32 | 0.30 | 93 | 1013.2 |
| 20260831143244 | 69 | 238 | 0.0 | 0.0 | 0.02 | 0.32 | 0.30 | 93 | 1013.1 |
| 20260831142744 | 69 | 148 | 0.0 | 0.0 | 0.02 | 0.32 | 0.30 | 93 | 1013.3 |
| 20260831142244 | 69 | 213 | 0.0 | 0.0 | 0.02 | 0.32 | 0.30 | 93 | 1013.7 |
| 20260831141244 | 69 | 221 | 0.0 | 0.0 | 0.03 | 0.32 | 0.30 | 93 | 1013.8 |
| 20260831140744 | 69 | 200 | 0.0 | 0.0 | 0.03 | 0.32 | 0.30 | 93 | 1013.9 |
| 20260831135801 | 69 | 186 | 0.0 | 0.0 | 0.03 | 0.31 | 0.29 | 93 | 1013.7 |
| 20260831134801 | 69 | 187 | 0.0 | 0.0 | 0.05 | 0.31 | 0.29 | 93 | 1014.1 |
| 20260831134231 | 69 | 221 | 0.0 | 0.0 | 0.05 | 0.30 | 0.28 | 93 | 1014.3 |
| 20260831133231 | 69 | 203 | 0.0 | 0.0 | 0.09 | 0.30 | 0.28 | 93 | 1014.3 |
| 20260831132801 | 69 | 246 | 0.0 | 0.0 | 0.10 | 0.30 | 0.28 | 93 | 1014.0 |
| 20260831132231 | 69 | 142 | 0.0 | 0.0 | 0.11 | 0.30 | 0.28 | 93 | 1014.2 |
| 20260831131731 | 69 | 213 | 0.0 | 0.0 | 0.12 | 0.30 | 0.28 | 93 | 1014.3 |
| 20260831131301 | 69 | 211 | 0.0 | 0.0 | 0.12 | 0.29 | 0.27 | 93 | 1014.7 |
| 20260831130731 | 69 | 204 | 0.0 | 0.0 | 0.12 | 0.29 | 0.27 | 93 | 1014.7 |
| 20260831130231 | 69 | 234 | 0.0 | 0.0 | 0.13 | 0.29 | 0.27 | 93 | 1014.7 |
| 20260831125231 | 69 | 221 | 0.0 | 0.0 | 0.12 | 0.27 | 0.25 | 93 | 1014.1 |
| 20260831124801 | 69 | 150 | 0.0 | 0.0 | 0.13 | 0.26 | 0.24 | 93 | 1014.2 |
| 20260831124301 | 68 | 225 | 0.0 | 0.0 | 0.12 | 0.25 | 0.23 | 93 | 1014.3 |
| 20260831123301 | 68 | 190 | 0.0 | 0.0 | 0.10 | 0.21 | 0.19 | 93 | 1014.3 |
| 20260831122801 | 68 | 215 | 0.0 | 0.0 | 0.09 | 0.20 | 0.18 | 93 | 1014.1 |
| 20260831122301 | 68 | 221 | 0.0 | 0.0 | 0.08 | 0.19 | 0.17 | 93 | 1013.8 |
| 20260831121801 | 68 | 222 | 0.0 | 0.0 | 0.07 | 0.18 | 0.16 | 93 | 1013.6 |
| 20260831121231 | 68 | 225 | 0.0 | 0.0 | 0.06 | 0.17 | 0.15 | 93 | 1013.8 |
| 20260831120801 | 68 | 230 | 0.0 | 0.0 | 0.06 | 0.17 | 0.15 | 93 | 1013.4 |
| 20260831120301 | 67 | 230 | 0.0 | 0.0 | 0.05 | 0.16 | 0.14 | 93 | 1013.3 |
| 20260831115301 | 67 | 153 | 0.0 | 0.0 | 0.04 | 0.15 | 0.13 | 93 | 1012.8 |
| 20260831114731 | 67 | 208 | 0.0 | 0.0 | 0.02 | 0.13 | 0.11 | 93 | 1012.8 |
| 20260831114301 | 67 | 192 | 0.0 | 0.0 | 0.02 | 0.13 | 0.11 | 93 | 1012.9 |
| 20260831113301 | 67 | 192 | 0.0 | 0.0 | 0.00 | 0.11 | 0.09 | 93 | 1012.7 |
| 20260831112801 | 67 | 151 | 0.0 | 0.0 | 0.00 | 0.11 | 0.09 | 93 | 1012.6 |
| 20260831112301 | 67 | 217 | 0.0 | 0.0 | 0.00 | 0.11 | 0.09 | 93 | 1012.5 |
| 20260831111231 | 67 | 219 | 0.0 | 0.0 | 0.00 | 0.11 | 0.09 | 93 | 1012.5 |